Flag for Albania Weather past 2 weeks in Durrës, Albania

Now
91 °F

Passing clouds.


Feels Like: 91 °F
Forecast: 79 / 87 °F
Wind: 10 mph from North

Location: Tirana Airport

Current Time: Sep 4, 2015 at 4:55:26 PM

Latest Report: Sep 4, 2015 at 4:20 PM


Visibility: N/A

Pressure: 29.92 "Hg

Humidity: 36%

Dew point: 61 °F

Location of DurrësLocation

Historic Weather in Durrës — Graph

°F

Durrës temperature yesterday

Maximum temperature yesterday: 93 °F (at 1:20 PM)
Minimum temperature yesterday: 64 °F (at 5:50 AM)
Average temperature yesterday: 78 °F

Past Weeks' High & Low Weather Summary

 TemperatureHumidityPressure
High99 °F (Aug 31, 12:50 PM)94% (Aug 22, 2:20 AM)30.12 "Hg (Aug 22, 2:20 AM)
Low61 °F (Aug 21, 6:20 AM)18% (Aug 30, 1:20 PM)29.86 "Hg (Sep 2, 5:50 AM)
Average78 °F61%29.99 "Hg
* Reported Aug 20 3:20 PM — Sep 4 3:50 PM, Durrës, Weather by CustomWeather, © 2015

Note: Actual official high and low records may vary slightly from our data, if they occured in-between our weather recording intervals... More about our weather records

Advertising

Durrës weather history for previous 24 hours

 ConditionsComfort  
Time TempWeatherWind HumidityBarometerVisibility
3:50 PM
Fri, Sep 4
91 °FPassing clouds.8 mph30%29.92 "HgN/A
3:20 PM91 °FPassing clouds.8 mph30%29.92 "HgN/A
2:50 PM93 °FPassing clouds.8 mph30%29.95 "HgN/A
2:20 PM91 °FPassing clouds.8 mph34%29.95 "HgN/A
1:50 PM95 °FPassing clouds.7 mph26%29.95 "HgN/A
1:20 PM93 °FSunny.3 mph21%29.95 "Hg10 mi
12:50 PM97 °FSunny.2 mph19%29.95 "Hg10 mi
12:20 PM93 °FPassing clouds.5 mph23%29.95 "HgN/A
11:50 AM93 °FSunny.2 mph24%29.95 "Hg10 mi
11:20 AM90 °FSunny.No wind27%29.95 "Hg10 mi
10:50 AM90 °FSunny.No wind31%29.95 "Hg10 mi
10:20 AM90 °FSunny.No wind33%29.95 "Hg10 mi
9:50 AM84 °FSunny.1 mph35%29.95 "Hg10 mi
9:20 AM81 °FPassing clouds.3 mph42%29.95 "HgN/A
8:50 AM79 °FPassing clouds.3 mph48%29.95 "HgN/A
8:20 AM75 °FSunny.5 mph57%29.95 "Hg10 mi
7:50 AM70 °FSunny.2 mph69%29.95 "Hg10 mi
7:20 AM68 °FSunny.3 mph73%29.95 "Hg10 mi
6:50 AM66 °FClear.3 mph78%29.92 "Hg10 mi
6:20 AM64 °FClear.3 mph83%29.92 "Hg10 mi
5:50 AM66 °FClear.3 mph73%29.92 "Hg10 mi
5:20 AM66 °FPassing clouds.5 mph83%29.92 "HgN/A
4:50 AM66 °FClear.3 mph83%29.92 "Hg10 mi
4:20 AM64 °FClear.3 mph88%29.92 "Hg10 mi
3:50 AM66 °FClear.3 mph83%29.95 "Hg10 mi
3:20 AM66 °FClear.2 mph83%29.95 "Hg10 mi
2:50 AM68 °FClear.3 mph83%29.92 "Hg10 mi
2:20 AM66 °FClear.No wind88%29.92 "Hg10 mi
1:50 AM68 °FClear.2 mph88%29.92 "Hg10 mi
1:20 AM70 °FClear.3 mph83%29.92 "Hg10 mi
12:50 AM70 °FClear.3 mph83%29.92 "Hg10 mi
12:20 AM70 °FClear.3 mph83%29.92 "Hg10 mi
11:20 PM
Thu, Sep 3
72 °FClear.3 mph78%29.92 "Hg10 mi
10:50 PM72 °FClear.5 mph78%29.92 "Hg10 mi
10:20 PM72 °FClear.5 mph78%29.92 "Hg10 mi
9:50 PM73 °FClear.3 mph78%29.92 "Hg10 mi
9:20 PM75 °FClear.5 mph74%29.92 "Hg10 mi
8:50 PM75 °FClear.3 mph78%29.89 "Hg10 mi
8:20 PM75 °FClear.2 mph74%29.89 "Hg10 mi
7:50 PM77 °FSunny.No wind74%29.89 "Hg10 mi
7:20 PM77 °FSunny.3 mph65%29.89 "Hg10 mi
6:50 PM79 °FSunny.5 mph65%29.89 "Hg10 mi
6:20 PM82 °FSunny.6 mph58%29.89 "Hg10 mi
5:50 PM84 °FSunny.9 mph55%29.89 "Hg10 mi
5:20 PM86 °FSunny.9 mph52%29.89 "Hg10 mi
4:50 PM90 °FPassing clouds.7 mph49%29.89 "HgN/A
4:20 PM90 °FPassing clouds.9 mph38%29.89 "HgN/A
Weather by CustomWeather, © 2015

See weather overviewHow to use our weather pages